Search for airport 
image banner adimage banner ad
image banner ad

FYKM - Katima Mulilo

Located in Katima Mulilo, Namibia

ICAO - FYKM, IATA - MPA

Data provided by Airmate  

General information

Coordinates: S17°38'3" E24°10'36"
Elevation is 3144 feet MSL.
 
View others Airports in Caprivi

Operational data

Open for public use
Current time UTC:
Current local time:
Weather
METAR: FYKM 222300Z AUTO 07002KT //// // ////// 23/09 Q1016
TAF: TAF FYKM 222000Z 2221/2306 11006KT CAVOK
View NOTAMs / SUP AIP / TFR affecting this airport [VIEW]
Communications frequencies: [VIEW]

Runways:

RWY identifierQFULength (ft)Width (ft)SurfaceLDA (ft)
0980°7520128ASP
27260°752069

Airport contact information

Address: Katima Mulilo Namibia

Satellite view of FYKM